Location: Buckenweiler
(49.0667°N, 10.2500°E)
Time: 11:07:01
(UTC+00:00)

Cosmos 540 Rocket - Pass Details

Date: 18 January 2026
Orbit: 736 x 747 km, 74.1° (Epoch: 16 February)

Event Time Altitude Azimuth Distance (km) Brightness Sun altitude
Exits shadow 04:40:34 15° 351° (N) 1,947 5.4 -23.2°
Maximum altitude 04:44:36 45° 60° (ENE) 1,006 4.4 -22.6°
Drops below altitude 10° 04:49:28 10° 133° (SE) 2,242 6.6 -21.8°
Sets 04:51:54 0° 139° (SE) 3,162 7.4 -21.4°
